Regional Weather Roundup
Issued by NWS

Home | Current Version | Previous Version | Text Only | Print | Product List | Glossary Off
Versions: 1 2 3 4 5 6 7 8 9 10 11 12 13 14 15 16 17 18 19 20 21 22 23 24 25 26 27 28 29 30 31 32 33 34 35 36 37 38 39 40 41 42 43 44 45 46 47 48 49 50

000
ASUS44 KMEG 222110
RWRTN
TENNESSEE HOURLY STATE WEATHER ROUNDUP
NATIONAL WEATHER SERVICE MEMPHIS TN
300 PM CST WED NOV 22 2017

TNZ002-004-019-021-049-052-054-088>092-222200-
WEST TENNESSEE

CITY           SKY/WX    TMP DP  RH WIND       PRES   REMARKS
MEMPHIS INTL   SUNNY     49  26  41 N12       30.24F
NWS MEMPHIS      N/A     47 N/A N/A MISG        N/A
JACKSON        SUNNY     48  25  40 N9        30.23F
DYERSBURG      SUNNY     45  23  42 NE8       30.27F
SOMERVILLE     SUNNY     46  25  42 NW10      30.22F
COVINGTON      SUNNY     46  23  39 NE7       30.26F
UNION CITY     SUNNY     45  23  42 N9        30.26S
BOLIVAR        SUNNY     48  23  37 VRB5G12   30.21F
PARIS          SUNNY     45  23  42 N7        30.23F
HUNTINGDON     SUNNY     46  23  39 VRB7      30.22F
LEXINGTON      SUNNY     48  21  34 N7        30.21F
SELMER         SUNNY     48  23  37 NE6       30.20F
SAVANNAH       SUNNY     48  25  40 N8        30.20F
$$

TNZ008-025-027-028-033-062-065-066-222200-
NORTH MIDDLE TENNESSEE

CITY           SKY/WX    TMP DP  RH WIND       PRES   REMARKS
NASHVILLE      MOSUNNY   47  24  40 NE15G21   30.21F
PORTLAND       SUNNY     45  25  45 N8G15     30.21F
CLARKSVILLE    SUNNY     45  23  42 N10       30.24F
SMYRNA         SUNNY     47  26  44 N13       30.21F
COOKEVILLE     SUNNY     46  25  42 N8G15     30.16F
GALLATIN       SUNNY     46  25  42 N9G16     30.24S
CROSSVILLE     SUNNY     47  23  38 N9        30.15R
$$

TNZ061-075-076-078-094-096-097-222200-
SOUTH MIDDLE TENNESSEE

CITY           SKY/WX    TMP DP  RH WIND       PRES   REMARKS
FAYETTEVILLE   SUNNY     48  27  43 N13       30.15F
TULLAHOMA      SUNNY     48  27  43 N7G14     30.15F
WINCHESTER     SUNNY     48  28  46 N6        30.15F
MCMINNVILLE    SUNNY     48  25  40 NE8       30.16F
COLUMBIA       SUNNY     50  23  34 N7        30.17F
SHELBYVILLE    SUNNY     46  27  46 N8G15     30.18S
$$

TNZ017-018-042-046-047-222200-
NORTHEAST TENNESSEE

CITY           SKY/WX    TMP DP  RH WIND       PRES   REMARKS
TRI CITIES     MOSUNNY   52  32  46 NE6       30.12S
ELIZABETHTON   SUNNY     52  27  37 NW8       30.11S
$$

TNZ012-013-036-069-073-074-222200-
CENTRAL EAST TENNESSEE

CITY           SKY/WX    TMP DP  RH WIND       PRES   REMARKS
KNOXVILLE      MOSUNNY   53  31  42 N7        30.13S
OAK RIDGE      SUNNY     52  27  38 VRB6      30.15S
DOWNTOWN KNOXV SUNNY     55  30  38 CALM      30.15R
GATLINBURG     SUNNY     54  30  40 N6        30.13S
MORRISTOWN     SUNNY     52  32  46 CALM      30.13R
JACKSBORO      SUNNY     48  25  40 NE10G17   30.19S
$$

TNZ083-085-099-222200-
SOUTHEAST TENNESSEE

CITY           SKY/WX    TMP DP  RH WIND       PRES   REMARKS
CHATTANOOGA    MOSUNNY   56  30  37 NE9       30.11F
DAYTON         CLEAR     55  30  38 NE6G12    30.12F
$$

SKY/WX REPORTED AS FAIR MEANS FEW OR NO CLOUDS BELOW
12 THOUSAND FEET.





USA.gov is the U.S. government's official web portal to all federal, state and local government web resources and services.